Terug naar catalogus

STARLINK-5431

ActiefCommunicatieVLEO
NORAD 54792·PAYLOAD·🇺🇸 United States

Gelanceerd Dec 17, 2022 vanaf Cape Canaveral Space Force Station

Loading…

Volgende Passages (komende 24 uur)

TLE

VersSource: CelesTrak SupGP

Epoch: Sep 14, 2026, 21:52 UTC

1 54792C 22175AL  26257.91159722  .00041769  00000+0  13438-2 0  2576
2 54792  53.1584 263.9935 0001363  78.2051  96.4462 15.31665931    10

Volg STARLINK-5431 in realtime met AllMySat

Download on the App Store